User: anonymous   Login
Location: Unspecified
(0.0000°N, 0.0000°E)
Time: 00:36:10
(UTC+00:00)
Language:

Kosmos-1506 - Orbit

View from above orbital plane
View from above orbital plane
View from above satellite
View from above satellite

Ground track
Ground track

The orbit data is extracted from the following two-line orbital elements,

1 14450U 83108A   21023.48288111  .00000028  00000-0  12838-4 0  9991
2 14450  82.9317 297.4083 0044137 109.5045  63.6077 13.76273606686563
Epoch (UTC): 23 January 2021 11:35:20
Eccentricity: 0.0044137
inclination: 82.9317°
perigee height: 944 km
apogee height: 1009 km
right ascension of ascending node: 297.4083°
argument of perigee: 109.5045°
revolutions per day: 13.76273606
mean anomaly at epoch: 63.6077°
orbit number at epoch: 68656

The dashed part of the orbit path shows where the satellite is in the earth's shadow,  

DLR